Rexburg, ID

11:09 AM MST on November 20, 2017 (GMT -0700)
Rexburg-Madison County

Weather History for KRXE - October, 2011

Change the Weather History Date:

Wednesday, October 12, 2011

  Actual Average Record
Temperature  
Mean Temperature 45 °F 46 °F  
Max Temperature 58 °F 60 °F 73 °F (1999)
Min Temperature 31 °F 32 °F 17 °F (2002)
Degree Days  
Heating Degree Days 20 19  
Month to date heating degree days 174 202  
Since 1 July heating degree days 331 560  
Cooling Degree Days 0 0  
Month to date cooling degree days 0 0  
Year to date cooling degree days 222 208  
Moisture  
Dew Point 33 °F    
Average Humidity 65    
Maximum Humidity 92    
Minimum Humidity 38    
Precipitation  
Precipitation 0.00 in 0.04 in 0.38 in (1981)
Month to date precipitation 1.55 0.42  
Year to date precipitation 11.96 10.30  
Sea Level Pressure  
Sea Level Pressure 30.20 in    
Wind  
Wind Speed 7 mph (SSW)    
Max Wind Speed 20 mph    
Max Gust Speed 25 mph    
Visibility 10 miles    
Events      
T = Trace of Precipitation, MM = Missing Value Source: NWS Daily Summary

Daily Weather History Graph

Daily Weather History Graph

Search for Another Location

Airport or City:

Trip Planner

Search our weather history database for the weather conditions in past years. The results will help you decide how hot, cold, wet, or windy it might be!

Date:

Astronomy

Oct. 12, 2011 Rise Set
Actual Time 7:37 AM MDT 6:49 PM MDT
Civil Twilight 7:08 AM MDT 7:17 PM MDT
Nautical Twilight 6:35 AM MDT 7:51 PM MDT
Astronomical Twilight 6:02 AM MDT 8:24 PM MDT
Moon 6:48 PM MDT (10/12) 8:19 AM MDT (10/12)
Length of Visible Light 12h 09m
Length of Day
11h 11m
Full, 100% of the Moon is Illuminated
Oct 12
Full
Oct 19
Last Quarter
Oct 26
New
Nov 2
First Quarter
Nov 10
Full

Hourly Weather History & Observations

Time (MDT) Temp. Windchill Dew Point Humidity Pressure Visibility Wind Dir Wind Speed Gust Speed Precip Events Conditions
12:53 AM 37.0 °F 33.3 °F 33.1 °F 86% 30.11 in 10.0 mi SSW 4.6 mph - N/A   Clear
1:53 AM 36.0 °F - 30.9 °F 82% 30.14 in 10.0 mi Calm Calm - N/A   Clear
2:53 AM 35.1 °F 32.2 °F 32.0 °F 89% 30.16 in 10.0 mi NE 3.5 mph - N/A   Clear
3:53 AM 34.0 °F - 30.9 °F 89% 30.18 in 10.0 mi Calm Calm - N/A   Clear
4:53 AM 37.9 °F 33.5 °F 34.0 °F 86% 30.19 in 10.0 mi South 5.8 mph - N/A   Clear
5:53 AM 36.0 °F - 33.1 °F 89% 30.21 in 10.0 mi Calm Calm - N/A   Clear
6:53 AM 30.9 °F 27.5 °F 28.9 °F 92% 30.25 in 10.0 mi NNE 3.5 mph - N/A   Clear
7:53 AM 30.9 °F - 28.0 °F 89% 30.27 in 10.0 mi Calm Calm - N/A   Clear
8:53 AM 34.0 °F - 30.0 °F 85% 30.27 in 10.0 mi Calm Calm - N/A   Clear
9:53 AM 41.0 °F 39.0 °F 35.1 °F 79% 30.26 in 10.0 mi WSW 3.5 mph - N/A   Clear
10:53 AM 46.9 °F - 37.0 °F 68% 30.26 in 10.0 mi SSW 9.2 mph - N/A   Clear
11:53 AM 51.1 °F - 36.0 °F 56% 30.26 in 10.0 mi SW 9.2 mph - N/A   Partly Cloudy
1:53 PM 55.0 °F - 36.0 °F 49% 30.21 in 10.0 mi SW 13.8 mph 19.6 mph N/A   Partly Cloudy
2:53 PM 55.9 °F - 37.0 °F 49% 30.20 in 10.0 mi SW 16.1 mph 21.9 mph N/A   Scattered Clouds
3:53 PM 57.0 °F - 37.0 °F 47% 30.18 in 10.0 mi SSW 12.7 mph 18.4 mph N/A   Clear
4:53 PM 57.0 °F - 33.1 °F 40% 30.17 in 10.0 mi SSW 12.7 mph 20.7 mph N/A   Clear
5:53 PM 55.0 °F - 30.9 °F 40% 30.18 in 10.0 mi SSW 11.5 mph 23.0 mph N/A   Clear
6:53 PM 51.1 °F - 36.0 °F 56% 30.21 in 10.0 mi South 8.1 mph - N/A   Clear
8:53 PM 48.9 °F - 34.0 °F 56% 30.20 in 10.0 mi South 9.2 mph - N/A   Clear
9:53 PM 48.0 °F - 33.1 °F 56% 30.18 in 10.0 mi South 6.9 mph - N/A   Clear
10:53 PM 48.0 °F - 32.0 °F 54% 30.15 in 10.0 mi South 10.4 mph - N/A   Clear